250P/Larson (2018)

Japanese version
Home page
Updated on April 13, 2018

---------------------------------------------------------------------

* Profile

* Pictures

* Orbital Elements

Epoch 2018 Feb. 11.0 TT = JDT 2458160.5
T 2018 Feb. 2.22100 TT                                  MPCW
q   2.2130564            (2000.0)            P               Q
n   0.13676449     Peri.   45.09412     -0.46314995     -0.85837847
a   3.7309590      Node    73.67989     +0.73453606     -0.51106718
e   0.4068398      Incl.   13.29091     +0.49593236     -0.04468487
P   7.21
From 409 observations 1995 Dec. 22-2018 Mar. 22, mean residual 0".5.

* Magnitudes Graph

        m1 = 9.0 + 5 log d + 25.0 log r(t - 50)

---------------------------------------------------------------------

The orbital elements are published on M.P.E.C. 2018-F152.
The magnitudes graphs are made with Comet for Windows.

---------------------------------------------------------------------

Copyright(C) Seiichi Yoshida (comet@aerith.net). All rights reserved.